Regional Weather Roundup
Issued by NWS Burlington, VT

Home | Current Version | Previous Version | Text Only | Print | Product List | Glossary On
Versions: 1 2 3 4 5 6 7 8 9 10 11 12 13 14 15 16 17 18 19 20 21 22 23 24 25 26 27 28 29 30 31 32 33 34 35 36 37 38 39 40 41 42 43 44 45 46 47 48 49 50
000
ASUS41 KBTV 311030
RWRBTV
VERMONT REGIONAL WEATHER ROUNDUP
NATIONAL WEATHER SERVICE BURLINGTON VT
600 AM EDT THU JUL 31 2014

NOTE: "FAIR" INDICATES FEW OR NO CLOUDS BELOW 12,000 FEET WITH NO
SIGNIFICANT WEATHER AND/OR OBSTRUCTIONS TO VISIBILITY.

* THESE REPORTS ARE NOT UNDER NWS QUALITY CONTROL AND/OR DO NOT
  REPORT WEATHER SUCH AS PRECIPITATION AND FOG.

VTZ001>019-311100-
_____VERMONT_____


CITY           SKY/WX    TMP DP  RH WIND       PRES   REMARKS
BURLINGTON     MOSUNNY   59  55  87 CALM      30.02R
MONTPELIER     MOSUNNY   53  51  93 CALM      30.08R
MORRISVILLE    CLOUDY    55  52  89 CALM      30.06R
ST. JOHNSBURY*   N/A     52  51  97 MISG      30.05R
LYNDONVILLE*   CLOUDY    52  49  90 CALM      30.08R
MIDDLEBURY*    CLOUDY    62  56  80 S5        30.04R
RUTLAND*       CLOUDY    55  52  88 SE6       30.06R
SPRINGFIELD    CLOUDY    53  51  93 CALM      30.08R
HIGHGATE*      FAIR      57  56  96 SE3       30.02R
NEWPORT*       CLOUDY    54  53  96 SW5       30.06R
BENNINGTON     CLOUDY    57  55  93 CALM      30.06R
SUTTON*          N/A     55 N/A N/A MISG        N/A
GALLUP MILLS*    N/A     36 N/A N/A MISG        N/A
UNION VILLAGE*   N/A     54 N/A N/A MISG        N/A
MT. MANSFIELD*   N/A     50 N/A N/A W8          N/A

_____LAKE CHAMPLAIN_____


CITY           SKY/WX    TMP DP  RH WIND       PRES   REMARKS
COLCHESTER RF*   N/A     64  57  77 S12         N/A
DIAMOND ISL*     N/A     61  55  82 S10         N/A

$$

NYZ007-026>031-035-052-083-311100-
_____NORTHERN NEW YORK_____


CITY           SKY/WX    TMP DP  RH WIND       PRES   REMARKS
PLATTSBURGH    SUNNY     55  55 100 CALM      30.01R FOG
SARANAC LAKE   MOSUNNY   43  42  97 CALM      30.03S FOG
MASSENA        SUNNY     51  51 100 CALM      30.00R
OGDENSBURG*    SUNNY     55  55 100 S3        29.99S
POTSDAM*       PTSUNNY   57  55  94 SW3       30.00S
PARISHVILLE*     N/A     57 N/A N/A SE10        N/A
WATERTOWN      PTSUNNY   60  53  77 S6        29.99R
FT DRUM        MOSUNNY   56  55  96 SE9       30.00R
ALBANY         PTSUNNY   64  57  78 S6        30.05R
GLENS FALLS    MOSUNNY   56  54  93 CALM      30.04R FOG

$$
NHZ002-005-011-311100-
_____NEW HAMPSHIRE_____


CITY           SKY/WX    TMP DP  RH WIND       PRES   REMARKS
LEBANON        FOG       56  54  93 CALM      30.06S VSB 1/4
KEENE          MOSUNNY   52  45  76 CALM      30.10R
MT WASHINGTON  MOSUNNY   43  42  97 SW21        N/A
PLYMOUTH       FOG       52  51  97 CALM      30.08R VSB 1/4
WHITEFIELD     SUNNY     47  44  90 CALM      30.07R

$$

_____REGIONAL QUEBEC LOCATIONS_____


CITY           SKY/WX    TMP DP  RH WIND       PRES   REMARKS
MONTREAL       MOSUNNY   61  55  82 SW5       30.00R
QUEBEC CITY    PTSUNNY   55  54  94 N3        30.02R
SHERBROOKE     MOSUNNY   50  48  93 CALM      30.03S

_____REGIONAL ONTARIO LOCATIONS_____


CITY           SKY/WX    TMP DP  RH WIND       PRES   REMARKS
OTTAWA         FOG       57  57 100 S6        29.98R VSB 1/4

______KEY______
VSB  - VISIBILITY IN MILES
WCI  - WIND CHILL INDEX
HX   - HEAT INDEX
$$
NNNN


USA.gov is the U.S. government's official web portal to all federal, state and local government web resources and services.